"Pseudo-MPEC" for P11DRHB

Created 2023 Mar 27 15:22:11 UT using Find_Orb

Click here for an explanation of pseudo-MPECs

 
 Astrometry: 
     P11DRHB* C2023 03 25I2CkK:i[1xHLbu9mNCXHT\:xs4g2FAstrometry`9pL6aQ*+2]ZBF51
     P11DRHB  C2023 03 25y/[l^X%`2aredacted;TdZi+FiE99q*!#4`5PwJrvY-iqen2R/fpF51
     P11DRHB  C2023 03 25D/VjS!^lMhGPa?S^i%[Ig$@RrR^[s/%\eJ5@.\mP)wRk=_O`ed/RF51
     P11DRHB  C2023 03 25h*^`6wv/,!Fq%57gq_=!6pF-UOnt:#(aeCx?aHt-sTCdAn#_o:/oF51
     P11DRHB 2C2023 03 25GdE;9_s?AZ^2T7t2[OfXn-MqFv1Ul3t7(3P!,q6E6SMv092_YjSA095
     P11DRHB 2C2023 03 25q%gnjC`#qw,^MaDxQC4Tw*-/plia0XclickYQLINf'Ecg)6NN5Zq095
     P11DRHB 2C2023 03 25#hherensrU)iHr*\[3C*b/1asxkc'sR;D0)m)!H2DJ^(@EaTBFpQ095
     P11DRHB 2C2023 03 251W$dhkOt`fort^iAhDiTin9Kt3J\gl\7DmoHWKj!?bu#QpkP9Fs-095
     P11DRHB 2C2023 03 259D\LornaT++GT.YZx5[=x0A)f3?f,'%Qc,[Ta59G6n/IN-_c%7st095
     P11DRHB 2C2023 03 25yf.r-:y2ErywLaffbW4qX?%70x7+QXm#e-WQ-sJ,KPGkcH*Z)FmK095
     P11DRHB 2C2023 03 25*3#Br.Te2?LiJYt@g%AYu+[eL2uR=.U9mkPfqs6Q5eK#jl6?wKE=095
     P11DRHB 2C2023 03 25jLO?$FM3_-+,R[LITcTj(%GLL]kI.k@R=JquJxb0_np7)C;^`o(B095
     P11DRHB |C2023 03 26OOn!f9$t^y'!#RPM+m7ja.\j+w(EF0AO_i*K(cgb[B?3Mlr@*c'8807
     P11DRHB |C2023 03 26yKwPTvP=$,d)hM)/iR.,Y!$y+AZw@+NJ9J!XA'6ME?;s#%AWKMjR807
     P11DRHB |C2023 03 26i1sIbn.6H:?Z5pbFiWsl\54m`a]@mQAOmi8]-:Q'tf[DN[3`TvDn807
     P11DRHB KC2023 03 26.30041812 15 01.739+07 12 56.92   ~3Q87 21.36GVNEOCPI52
     P11DRHB KC2023 03 26.30289712 15 01.588+07 12 59.80   ~3Q87 21.38GVNEOCPI52
     P11DRHB KC2023 03 26.30537012 15 01.462+07 13 03.40   ~3Q87 21.70GVNEOCPI52
     P11DRHB KC2023 03 26.31738412 15 00.792+07 13 20.17   ~3Q87 21.32GVNEOCPI52
     P11DRHB |C2023 03 27D^U[%#b0Dk$3);tCmU=Y7abLO'Ux%#vc2Xh5@yY1WF;rA8evVygq807
     P11DRHB |C2023 03 27a:F=uUo2l=EJ,ZD_n/:$h5=.fs--DHGEevTZPgn2*TFNm:8c/QDY807
     P11DRHB |C2023 03 27_d,lr+ns*YJ^n%NH7YV^aIRexplanationy2apd`)#$jpvuJ%xt=807

Station data:
(095) Crimea-Nauchnij  (N44.726555 E34.016000)  Ukraine.  Observers V.
   Rumyantsev, V. V. Rumyantsev. Measurers A. Novichonok, A. Zhornichenko.
   0.35-m f/5 reflector + CCD0.64-m reflector + CCD.
(807) Cerro Tololo Observatory, La Serena  (S30.169133 W70.805900)  Chile.
   Observer R. Holmes. 0.61-m f/6.5 astrograph + CCD.
(F51) Pan-STARRS 1, Haleakala  (N20.707234 W156.255910)  US/Hawaii.
   Observers J. Bulger, T. Lowe, A. Schultz, M. Willman. Measurers K.
   Chambers, S. Chastel, T. de Boer, L. Denneau, J. Fairlamb, H. Flewelling,
   M. Huber, C.-C. Lin, E. Magnier, Y. Ramanjooloo, R. Wainscoat, R. Weryk.
   1.8-m Ritchey-Chrétien + CCD.
(I52) Steward Observatory, Mt. Lemmon Station  (N32.442544 W110.788920)
   US/Arizona.  Observers T. A. Pruyne, B. M. Africano, E. J. Christensen, G.
   A. Farneth, D. C. Fuls, A. R. Gibbs, A. D. Grauer, H. Gröller, J. A.
   Johnson, R. A. Kowalski, S. M. Larson, G. J. Leonard, D. Rankin, R. L.
   Seaman, F. C. Shelly, K. W. Wierzchoś. 1.0-m reflector + CCD.

Orbital elements:  P11DRHB
   Perihelion 2024 May 5.12002 +/- 309 TT =  2:52:49 (JD 2460435.62002)
Epoch 2023 Mar 27.0 TT = JDT 2460030.5   Earth MOID: 0.7753      AutoNEOCP
M 202.69249257 +/- 60               (J2000 ecliptic)
n   0.38829853 +/- 0.0361           Peri.  169.89772 +/- 52
a   1.86076795 +/- 0.115            Node   173.11631 +/- 1.3
e   0.0430849 +/- 0.0471            Incl.   22.14875 +/- 5.4
P   2.54/927.10d           H 19.71  G  0.15   U 10.5  SR
q 1.78059680 +/- 0.117    Q 1.94093909 +/- 0.185
From 22 observations 2023 Mar. 25-27 (42.4 hr); mean residual 0".57
Residuals in arcseconds: 
230325 F51  .01-  .28-    230325 095  .19-  .98+    230326 I52  .61-  .45+    
230325 F51  .04-  .14-    230325 095  .01+  .83+    230326 I52  .35-  .57+    
230325 F51  .15+  .35-    230325 095  .07+  .65+    230326 I52  .05+  .41+    
230325 F51  .07+  .26-    230325 095  .14+  .97+    230327 807  .51+  1.1-    
230325 095  .26+  1.0+    230326 807  .26-  .06-    230327 807  .30+  1.1-    
230325 095  .01+  1.1+    230326 807  .18-  .07-    230327 807  .10+  1.2-    
230325 095  .01-  .83+    230326 807  .11-  .12+    
230325 095  .25-  .96+    230326 I52  .51-  1.1+    

Ephemerides (geocentric):
Date (UTC) HH   RA             Dec           delta  r     elong  mag " sig PA
---- --------  ------------   ------------  ------ ------ -----  --- --------
2023 03 27 15  12 13 49.365   +07 43 55.33  .94554 1.9351 169.5 21.5 4.03  65
2023 03 27 16  12 13 47.093   +07 44 53.32  .94558 1.9351 169.4 21.5 4.30  65
2023 03 27 17  12 13 44.821   +07 45 51.29  .94563 1.9351 169.4 21.5 4.58  65
2023 03 27 18  12 13 42.550   +07 46 49.23  .94568 1.9351 169.3 21.5 4.86  65
2023 03 27 19  12 13 40.279   +07 47 47.15  .94572 1.9351 169.3 21.5 5.16  65
2023 03 27 20  12 13 38.008   +07 48 45.05  .94577 1.9351 169.3 21.5 5.46  65
2023 03 27 21  12 13 35.737   +07 49 42.92  .94582 1.9350 169.2 21.5 5.77  65
2023 03 27 22  12 13 33.468   +07 50 40.77  .94587 1.9350 169.2 21.5 6.09  65
2023 03 27 23  12 13 31.198   +07 51 38.59  .94592 1.9350 169.1 21.5 6.41  65
2023 03 28 00  12 13 28.929   +07 52 36.38  .94597 1.9350 169.1 21.5 6.75  65
2023 03 28 01  12 13 26.660   +07 53 34.16  .94602 1.9350 169.0 21.5 7.09  65
2023 03 28 02  12 13 24.392   +07 54 31.90  .94607 1.9350 169.0 21.5 7.43  65
2023 03 28 03  12 13 22.124   +07 55 29.63  .94612 1.9350 169.0 21.5 7.79  65
2023 03 28 04  12 13 19.857   +07 56 27.32  .94618 1.9350 168.9 21.5 8.15  65
2023 03 28 05  12 13 17.590   +07 57 24.99  .94623 1.9350 168.9 21.5 8.52  65
2023 03 28 06  12 13 15.323   +07 58 22.64  .94628 1.9350 168.8 21.5 8.90  65
2023 03 28 07  12 13 13.057   +07 59 20.26  .94634 1.9350 168.8 21.5 9.29  65
2023 03 28 08  12 13 10.792   +08 00 17.85  .94639 1.9350 168.7 21.5 9.68  65
2023 03 28 09  12 13 08.527   +08 01 15.42  .94644 1.9349 168.7 21.5 10.1  65
2023 03 28 10  12 13 06.262   +08 02 12.96  .94650 1.9349 168.6 21.5 10.5  65
2023 03 28 11  12 13 03.998   +08 03 10.48  .94655 1.9349 168.6 21.5 10.9  65
2023 03 28 12  12 13 01.735   +08 04 07.97  .94661 1.9349 168.6 21.5 11.3  65
2023 03 28 13  12 12 59.472   +08 05 05.44  .94667 1.9349 168.5 21.5 11.8  65
2023 03 28 14  12 12 57.209   +08 06 02.87  .94672 1.9349 168.5 21.5 12.2  65
2023 03 28 15  12 12 54.947   +08 07 00.28  .94678 1.9349 168.4 21.5 12.6  65
2023 03 28 16  12 12 52.685   +08 07 57.67  .94684 1.9349 168.4 21.5 13.1  64
2023 03 28 17  12 12 50.424   +08 08 55.03  .94690 1.9349 168.3 21.5 13.6  64
2023 03 28 18  12 12 48.164   +08 09 52.36  .94696 1.9349 168.3 21.5 14.0  64
2023 03 28 19  12 12 45.904   +08 10 49.66  .94701 1.9349 168.2 21.5 14.5  64
2023 03 28 20  12 12 43.645   +08 11 46.94  .94707 1.9349 168.2 21.5 15.0  64
2023 03 28 21  12 12 41.386   +08 12 44.19  .94713 1.9348 168.1 21.5 15.5  64
2023 03 28 22  12 12 39.128   +08 13 41.42  .94719 1.9348 168.1 21.5 16.0  64
2023 03 28 23  12 12 36.870   +08 14 38.61  .94726 1.9348 168.1 21.6 16.5  64
2023 03 29 00  12 12 34.613   +08 15 35.78  .94732 1.9348 168.0 21.6 17.0  64
2023 03 29 01  12 12 32.357   +08 16 32.92  .94738 1.9348 168.0 21.6 17.5  64
2023 03 29 02  12 12 30.101   +08 17 30.04  .94744 1.9348 167.9 21.6 18.1  64
2023 03 29 03  12 12 27.846   +08 18 27.12  .94750 1.9348 167.9 21.6 18.6  64
2023 03 29 04  12 12 25.591   +08 19 24.18  .94757 1.9348 167.8 21.6 19.2  64
2023 03 29 05  12 12 23.337   +08 20 21.21  .94763 1.9348 167.8 21.6 19.7  64
2023 03 29 06  12 12 21.084   +08 21 18.21  .94770 1.9348 167.7 21.6 20.3  64
2023 03 29 07  12 12 18.831   +08 22 15.19  .94776 1.9348 167.7 21.6 20.8  64
2023 03 29 08  12 12 16.579   +08 23 12.13  .94783 1.9348 167.6 21.6 21.4  64
2023 03 29 09  12 12 14.328   +08 24 09.05  .94789 1.9347 167.6 21.6 22.0  64
2023 03 29 10  12 12 12.077   +08 25 05.94  .94796 1.9347 167.5 21.6 22.6  64
2023 03 29 11  12 12 09.827   +08 26 02.80  .94802 1.9347 167.5 21.6 23.2  64
2023 03 29 12  12 12 07.578   +08 26 59.63  .94809 1.9347 167.5 21.6 23.8  64
2023 03 29 13  12 12 05.329   +08 27 56.44  .94816 1.9347 167.4 21.6 24.4  64
2023 03 29 14  12 12 03.081   +08 28 53.21  .94823 1.9347 167.4 21.6 25.0  64